Theta_e
292 287 286 288 289 287 287 285 283 286 291 288 289 288 290 290 289 288 288 288 287 288 289 290 290 290 290 291 292 292 292 293 295 295 297 300 297 297 296 298 297 298 300 305
289 285 291 291 290 289 287 284 284 288 291 290 288 288 287 288 288 288 287 286 287 287 288 289 289 289 288 289 290 291 291 292 293 293 293 294 295 294 294 294 294 294 295 295
288 291 293 291 289 288 286 285 285 287 288 287 286 284 285 287 288 288 287 287 287 286 286 287 287 287 287 287 288 289 290 291 291 292 292 292 292 291 290 290 291 292 292 293
289 293 292 289 289 289 285 291 289 288 284 281 285 279 283 284 284 285 285 284 285 285 286 287 286 286 286 286 286 288 289 289 290 290 289 288 287 286 287 288 288 289 290 290
290 290 289 288 290 291 289 290 288 285 282 281 281 279 280 284 282 283 284 285 285 285 285 285 285 286 286 286 285 284 286 287 288 288 287 286 285 286 286 286 285 286 286 287
291 291 289 290 289 291 291 287 286 283 282 277 282 281 281 281 284 283 285 285 286 285 284 284 285 285 284 284 284 283 284 284 286 286 286 285 284 283 283 283 283 284 284 284
286 288 289 290 286 287 286 283 278 277 276 277 282 280 282 284 286 286 285 284 284 284 283 283 282 283 283 283 283 284 283 282 283 283 284 284 283 283 282 282 281 282 282 282
283 282 288 290 288 286 284 284 279 272 274 278 281 279 282 284 286 287 286 284 283 283 283 283 283 282 282 282 282 283 282 282 282 282 282 282 283 282 282 281 281 280 281 282
284 284 288 288 288 289 284 282 286 279 268 274 279 280 283 284 283 283 283 282 282 282 283 282 283 282 282 282 282 282 282 282 282 282 282 282 282 282 282 282 282 281 281 283
288 282 287 287 288 287 287 288 281 280 270 269 276 278 280 280 281 282 281 281 281 281 281 281 281 281 281 281 281 281 282 282 282 282 281 282 281 282 282 282 281 281 281 281
288 286 283 286 285 284 284 282 283 283 280 272 269 276 283 284 284 282 282 283 282 281 280 280 280 281 281 281 280 280 280 281 281 281 280 280 280 280 280 280 280 280 280 280
290 287 278 283 286 287 286 285 284 282 277 277 277 279 285 287 286 284 283 284 282 281 280 279 280 281 281 281 280 280 280 280 280 280 280 280 280 279 279 279 279 280 280 280
291 284 273 280 282 284 283 284 284 282 279 276 275 277 284 284 284 284 284 284 282 281 279 279 279 279 279 279 279 278 278 278 279 278 278 279 279 279 279 279 280 280 279 279
292 283 280 280 279 281 278 282 282 280 274 277 277 277 280 282 283 282 282 282 280 279 279 278 278 278 278 278 277 277 278 278 278 278 278 278 278 278 278 278 278 278 278 278
288 282 281 281 283 282 281 281 282 278 279 278 279 279 281 282 282 281 280 279 276 276 277 276 277 277 277 277 277 278 278 277 277 276 276 276 276 276 276 276 276 276 275 274
283 280 280 278 278 278 278 280 281 281 280 278 279 280 282 280 277 276 276 276 276 276 277 278 278 278 278 279 278 278 276 275 275 274 275 275 275 275 275 274 274 273 272 271
281 278 276 274 272 273 271 275 280 281 280 281 277 280 276 273 276 276 275 276 276 277 277 278 278 278 279 278 278 274 274 274 274 274 274 274 273 272 272 271 270 269 269 268
277 274 271 267 265 262 275 273 275 279 276 277 275 272 274 276 275 276 276 276 277 277 277 278 277 277 278 276 274 273 274 273 273 272 272 271 271 269 269 268 267 267 266 266
279 277 268 269 262 269 274 273 272 273 272 274 276 275 275 275 274 272 276 276 277 277 278 278 278 277 274 274 273 272 272 272 271 270 270 269 268 266 266 264 264 264 264 263
278 278 276 259 263 262 266 271 274 274 267 270 271 272 273 274 268 272 276 277 277 278 278 277 275 275 273 272 272 270 269 269 268 268 268 267 266 264 263 263 262 262 262 262
270 272 273 264 266 265 272 274 275 265 268 271 274 273 273 271 275 276 277 276 278 278 276 274 273 272 271 271 270 268 267 266 267 267 266 265 265 263 262 261 261 260 260 261
267 267 264 267 266 263 275 274 271 274 275 277 275 276 275 276 277 277 277 277 276 274 274 273 271 270 270 270 267 266 265 266 265 265 263 262 261 261 261 259 259 259 259 258
266 270 267 270 269 274 276 275 278 278 277 277 277 277 277 276 276 276 276 275 274 273 273 271 269 268 267 267 266 263 264 264 263 259 258 258 259 260 260 258 258 258 258 258
271 272 268 269 273 274 276 278 278 278 278 278 278 278 276 275 276 276 276 275 273 271 270 268 266 265 265 265 265 263 263 262 255 255 257 258 258 259 259 259 259 258 258 258
273 272 267 268 274 275 276 278 279 279 278 277 277 277 277 276 275 275 274 273 271 270 268 266 265 265 263 263 262 260 261 257 256 257 258 258 258 258 258 259 259 259 261 262
274 271 270 269 276 276 277 279 279 278 277 277 276 275 276 276 276 274 272 271 269 267 265 264 263 261 260 259 258 257 254 253 252 255 257 257 257 258 258 258 258 263 266 267
Wind_Speed
0 4 8 12 11 2 3 5 5 4 6 0 6 5 6 11 8 9 9 10 10 10 6 10 11 11 13 15 17 17 17 14 11 6 4 7 7 8 10 9 13 14 13 12
3 7 12 3 5 6 5 4 6 5 6 5 5 7 5 11 6 6 9 8 8 7 10 10 11 13 14 14 15 16 16 15 12 8 4 4 4 5 5 8 11 14 14 14
9 6 4 8 6 6 5 6 4 7 3 3 1 5 3 5 8 10 8 8 7 7 8 8 11 10 11 13 12 13 13 15 13 11 6 5 4 4 7 10 9 11 13 13
7 5 6 4 6 8 4 7 7 4 4 4 1 5 4 5 5 6 5 5 5 6 7 6 7 8 9 8 8 11 12 13 12 11 10 13 9 7 3 3 4 7 11 12
7 4 4 5 9 7 7 5 5 3 3 1 2 2 3 7 4 4 4 4 5 5 5 6 6 6 5 6 7 6 11 12 10 11 10 8 9 4 3 4 8 9 8 9
6 1 3 6 2 6 5 5 6 4 3 2 9 8 4 7 8 9 5 6 7 5 5 5 5 5 6 6 7 7 10 10 8 9 10 10 9 7 7 7 7 6 5 6
2 4 2 3 4 2 3 6 1 3 1 7 4 3 4 6 3 15 16 9 7 6 6 5 6 6 6 8 7 7 8 9 7 8 9 7 7 7 7 6 5 7 6 5
7 4 9 6 7 7 7 7 7 8 5 4 1 7 3 2 8 14 12 10 8 7 5 6 6 5 5 6 6 7 7 7 7 8 8 6 5 4 3 3 2 2 3 4
6 6 1 3 3 6 5 5 3 6 3 4 5 1 1 4 7 10 11 9 9 8 7 7 6 5 6 6 5 6 7 6 7 7 6 7 7 8 6 7 5 4 4 6
6 2 1 1 2 2 5 5 3 2 2 5 5 5 5 9 12 10 10 11 8 7 7 6 6 6 4 4 3 3 3 3 1 2 2 1 3 4 4 4 6 6 6 6
5 4 2 3 6 8 2 1 1 3 5 6 2 7 2 15 17 18 14 12 10 9 8 7 6 6 6 4 4 4 4 4 4 2 3 4 4 4 5 4 6 6 5 7
5 5 5 7 1 2 2 7 7 6 6 3 3 9 8 8 16 14 13 10 7 7 8 8 7 7 5 5 4 4 2 3 3 3 3 4 5 5 5 6 6 6 7 7
7 1 2 7 1 2 5 4 4 4 4 9 7 7 5 6 8 8 9 8 8 8 8 7 5 6 6 4 1 2 1 2 3 5 5 6 6 7 7 7 8 7 8 10
4 4 9 13 6 5 5 5 5 6 5 6 9 3 3 5 9 7 7 7 7 7 8 7 6 7 5 2 3 5 6 6 6 6 6 5 5 6 7 9 9 10 10 12
4 6 2 2 4 2 1 4 10 8 7 10 5 9 12 11 10 8 7 6 8 8 8 7 6 5 4 4 4 4 4 5 5 5 5 5 6 8 8 10 10 9 12 13
2 5 3 1 5 4 4 9 7 6 4 6 3 18 8 4 6 6 9 9 8 7 7 7 7 7 6 5 4 3 4 5 5 5 6 7 8 9 9 10 12 13 14 14
5 7 4 5 3 3 9 11 18 12 7 11 14 12 7 5 8 11 10 9 8 7 7 8 8 7 5 5 4 3 3 4 4 4 5 7 8 9 11 12 14 14 14 15
5 6 2 4 3 4 3 1 3 15 5 7 0 3 4 5 5 6 7 9 8 7 8 7 6 5 6 4 4 3 3 4 4 5 6 6 8 10 12 13 13 14 13 14
2 5 3 5 5 8 7 7 8 9 10 9 9 4 3 5 4 1 7 6 8 7 7 6 5 5 5 5 3 2 3 3 4 6 6 7 9 11 12 13 14 13 13 13
2 4 3 3 5 11 6 4 3 5 7 7 6 6 7 6 3 6 9 7 8 6 6 8 7 5 5 4 3 1 3 4 5 5 7 8 9 9 12 14 14 12 12 14
3 1 10 4 5 11 6 4 1 7 10 4 7 7 7 6 7 4 7 6 5 6 8 7 6 6 5 4 3 2 3 5 4 5 7 8 9 11 12 13 11 13 13 13
9 9 5 4 5 12 7 6 8 6 2 7 6 7 8 8 5 7 8 7 8 9 8 7 6 5 5 5 3 3 5 4 4 5 7 9 9 9 10 12 12 12 13 13
3 9 9 12 9 1 9 6 9 6 7 7 7 6 9 9 8 8 7 7 8 10 8 6 6 5 4 4 3 3 3 4 5 4 8 9 9 9 10 11 12 11 11 11
6 5 3 4 4 6 9 8 4 8 8 7 7 8 9 9 9 9 6 6 7 7 7 5 6 4 4 4 1 3 4 4 3 6 8 8 9 10 9 8 9 9 10 10
7 8 7 3 5 2 7 9 11 8 7 4 6 7 11 9 8 8 5 7 8 8 6 6 5 4 5 4 4 3 3 2 5 6 8 9 7 9 10 9 9 10 11 13
8 8 5 7 8 7 7 9 13 10 9 12 10 8 8 10 11 7 6 7 7 7 6 5 5 5 4 4 4 3 3 2 4 6 6 7 7 8 8 9 11 20 23 27
Wind_Direction
127 117 204 205 202 183 178 195 221 255 269 352 244 244 340 337 41 96 95 87 77 62 44 38 31 32 40 40 41 37 40 30 37 24 28 45 48 31 36 32 26 26 20 12
57 224 229 130 171 205 239 242 253 280 264 167 270 282 54 34 38 86 97 81 74 70 51 39 33 35 39 41 39 38 41 40 40 40 32 48 46 45 46 31 31 24 22 22
187 211 155 179 191 191 207 196 211 220 323 286 282 290 148 56 68 72 64 88 86 79 66 44 41 32 42 45 43 47 43 39 37 40 52 58 64 47 32 25 26 22 24 24
243 236 189 174 220 155 207 211 219 220 134 228 89 269 168 119 74 76 77 72 85 89 83 72 51 47 43 33 40 60 60 55 45 35 48 58 65 65 20 14 12 22 26 28
237 192 174 187 220 161 226 150 169 168 149 48 286 94 256 130 158 158 131 112 84 67 81 74 74 77 55 43 43 45 59 55 56 58 57 60 65 59 33 26 32 26 22 25
224 285 206 204 98 161 140 96 47 56 88 257 224 171 230 192 186 155 160 147 129 124 99 87 73 60 56 43 54 47 58 56 51 56 59 59 53 47 46 33 30 16 9 11
225 226 242 168 105 45 99 94 317 349 346 229 129 129 268 327 234 161 153 153 153 143 129 112 88 73 63 55 46 62 57 51 45 59 59 59 59 55 49 35 19 11 5 5
166 245 174 191 191 180 185 165 165 209 200 241 99 233 240 30 105 125 142 151 152 154 149 129 119 113 102 89 76 71 61 55 41 46 47 51 56 64 60 43 12 356 346 336
161 268 162 156 141 143 192 187 175 102 26 52 224 338 160 119 122 135 150 160 170 170 164 150 146 126 111 93 82 79 70 56 45 42 34 25 24 27 12 4 3 347 338 334
198 147 133 140 96 21 163 166 89 9 165 238 274 267 207 194 180 172 178 185 187 176 162 161 156 150 140 132 118 100 107 143 200 252 262 317 319 320 307 302 298 315 312 318
149 132 238 110 197 182 134 201 97 154 152 176 248 257 239 192 181 181 186 192 187 179 179 174 184 182 173 166 172 194 203 211 229 250 261 265 284 291 297 299 294 288 289 292
190 139 172 202 123 306 234 204 168 189 219 226 158 256 327 181 175 172 189 193 175 178 182 184 191 182 182 200 207 224 254 283 298 293 297 309 313 316 303 290 285 284 281 280
182 53 48 342 341 2 223 202 153 108 62 206 185 256 25 103 140 173 174 185 176 177 180 185 190 200 208 209 222 277 356 348 6 29 17 358 352 351 340 329 325 317 308 311
40 110 182 217 192 131 183 201 192 154 174 171 224 206 194 169 166 185 180 166 171 171 177 192 203 212 214 185 57 40 39 44 22 20 4 348 337 330 326 323 322 323 325 323
105 237 171 10 29 53 267 230 186 191 208 206 242 223 190 192 194 201 189 168 159 166 175 180 180 178 168 157 127 94 62 32 16 7 356 341 332 331 325 321 321 325 316 312
198 187 124 167 16 24 285 237 216 227 211 267 245 268 166 194 108 157 182 168 169 180 182 194 187 179 172 141 115 83 28 12 8 351 336 331 326 320 318 316 315 313 311 310
159 134 130 227 29 43 286 217 208 215 208 205 224 239 164 174 195 182 178 177 173 180 197 193 194 188 163 147 123 91 28 353 340 324 321 318 317 317 317 315 313 309 310 309
132 97 62 135 32 220 260 346 345 229 256 206 305 203 184 174 188 171 183 166 177 195 206 205 187 160 140 124 104 61 11 337 322 315 313 317 320 313 312 308 307 307 304 305
58 128 116 170 197 311 266 199 176 170 254 192 209 175 128 103 84 254 201 183 187 204 216 186 155 148 139 140 119 34 323 304 299 302 309 317 317 309 310 307 305 304 302 299
56 34 142 126 171 217 246 271 157 101 281 218 158 159 157 144 130 238 198 193 216 214 167 156 145 131 135 136 112 320 281 285 286 293 309 307 302 300 299 300 302 299 297 295
114 136 213 195 227 283 221 200 136 107 241 149 172 178 152 182 196 185 159 196 201 170 149 130 137 150 149 140 138 248 270 262 286 303 295 293 294 293 292 294 298 299 298 295
156 161 201 147 203 266 156 82 173 202 99 160 188 189 184 217 196 195 192 202 173 157 150 148 149 155 150 144 150 242 259 292 299 293 293 288 285 283 290 289 293 295 295 294
240 190 183 187 205 221 201 186 198 177 162 200 181 198 198 206 214 207 225 208 184 173 162 147 155 158 160 152 158 230 274 301 299 286 288 281 282 281 280 287 292 296 293 293
246 156 200 97 225 210 213 235 235 200 208 184 197 193 180 200 214 228 220 192 171 162 158 140 145 165 192 169 245 245 281 306 293 288 289 291 292 295 289 284 287 289 288 292
196 124 150 264 267 94 267 233 238 214 226 219 228 207 200 197 227 215 215 177 171 159 148 148 163 176 183 173 224 246 290 300 298 292 297 297 293 297 298 288 290 286 284 285
159 152 165 213 212 174 222 218 222 216 216 224 212 227 224 193 222 194 204 166 156 156 143 152 165 174 192 199 254 257 270 264 270 295 295 295 300 301 299 299 299 293 301 304